QPF
0.00 0.00 0.00 0.00 0.00 0.00 0.00 0.00 0.00 0.00 0.00 0.00 0.00 0.00 0.00 0.00 0.00 0.00 0.00 0.00 0.00 0.00 0.00 0.00 0.00 0.00 0.00 0.00 0.01 0.02 0.03 0.03 0.02 0.01 0.02 0.03 0.03 0.02 0.00 0.00 0.00 0.00 0.00 0.00
0.00 0.00 0.00 0.00 0.00 0.00 0.00 0.00 0.00 0.00 0.00 0.00 0.00 0.00 0.00 0.00 0.00 0.00 0.00 0.00 0.00 0.00 0.00 0.00 0.00 0.00 0.00 0.00 0.00 0.00 0.02 0.02 0.00 0.00 0.00 0.00 0.00 0.00 0.00 0.00 0.00 0.00 0.00 0.00
0.00 0.00 0.00 0.00 0.00 0.00 0.00 0.00 0.00 0.00 0.00 0.00 0.00 0.00 0.00 0.00 0.00 0.00 0.00 0.00 0.00 0.00 0.00 0.00 0.00 0.00 0.00 0.00 0.00 0.00 0.00 0.00 0.00 0.00 0.00 0.00 0.00 0.00 0.00 0.00 0.00 0.00 0.00 0.00
0.00 0.00 0.00 0.00 0.00 0.00 0.00 0.00 0.00 0.00 0.00 0.00 0.00 0.00 0.00 0.00 0.00 0.00 0.00 0.00 0.00 0.00 0.00 0.00 0.00 0.00 0.00 0.00 0.00 0.00 0.00 0.00 0.00 0.00 0.00 0.00 0.00 0.00 0.00 0.00 0.00 0.00 0.00 0.00
0.00 0.00 0.00 0.00 0.00 0.00 0.00 0.00 0.00 0.00 0.00 0.00 0.00 0.00 0.00 0.00 0.00 0.00 0.00 0.00 0.00 0.00 0.00 0.00 0.00 0.00 0.00 0.00 0.00 0.00 0.00 0.00 0.00 0.00 0.00 0.00 0.00 0.00 0.00 0.00 0.00 0.00 0.00 0.00
0.00 0.00 0.00 0.00 0.00 0.00 0.00 0.00 0.00 0.00 0.00 0.00 0.00 0.00 0.00 0.00 0.00 0.00 0.00 0.00 0.00 0.00 0.00 0.00 0.00 0.00 0.00 0.00 0.00 0.00 0.00 0.00 0.00 0.00 0.00 0.00 0.00 0.00 0.00 0.00 0.00 0.00 0.00 0.00
0.00 0.00 0.00 0.00 0.00 0.00 0.00 0.00 0.00 0.00 0.00 0.00 0.00 0.00 0.00 0.00 0.00 0.00 0.00 0.00 0.00 0.00 0.00 0.00 0.00 0.00 0.00 0.00 0.00 0.00 0.00 0.00 0.00 0.00 0.00 0.00 0.00 0.00 0.00 0.00 0.00 0.00 0.00 0.00
0.00 0.00 0.00 0.00 0.00 0.00 0.00 0.00 0.00 0.00 0.00 0.00 0.00 0.00 0.00 0.00 0.00 0.00 0.00 0.00 0.00 0.00 0.00 0.00 0.00 0.00 0.00 0.00 0.00 0.00 0.00 0.00 0.00 0.00 0.00 0.00 0.00 0.00 0.00 0.00 0.00 0.00 0.00 0.00
0.00 0.00 0.00 0.00 0.00 0.00 0.00 0.00 0.00 0.00 0.00 0.00 0.00 0.00 0.00 0.00 0.00 0.00 0.00 0.00 0.00 0.00 0.00 0.00 0.00 0.00 0.00 0.00 0.00 0.00 0.00 0.00 0.00 0.00 0.00 0.00 0.00 0.00 0.00 0.00 0.00 0.00 0.00 0.00
0.00 0.00 0.00 0.00 0.00 0.00 0.00 0.00 0.00 0.00 0.00 0.00 0.00 0.00 0.00 0.00 0.00 0.00 0.00 0.00 0.00 0.00 0.00 0.00 0.00 0.00 0.00 0.00 0.00 0.00 0.00 0.00 0.00 0.00 0.00 0.00 0.00 0.00 0.00 0.00 0.00 0.00 0.00 0.00
0.00 0.00 0.00 0.00 0.00 0.00 0.00 0.00 0.00 0.00 0.00 0.00 0.00 0.00 0.00 0.00 0.00 0.00 0.00 0.00 0.00 0.00 0.00 0.00 0.00 0.00 0.00 0.00 0.02 0.04 0.04 0.05 0.07 0.06 0.04 0.02 0.01 0.00 0.00 0.00 0.00 0.00 0.00 0.00
0.00 0.00 0.00 0.00 0.00 0.00 0.00 0.00 0.00 0.00 0.00 0.00 0.00 0.00 0.00 0.00 0.00 0.00 0.00 0.00 0.00 0.00 0.00 0.00 0.00 0.00 0.00 0.00 0.00 0.00 0.01 0.01 0.01 0.04 0.13 0.16 0.14 0.12 0.09 0.05 0.03 0.02 0.01 0.01
0.00 0.00 0.00 0.00 0.00 0.00 0.00 0.00 0.00 0.00 0.00 0.00 0.00 0.00 0.00 0.00 0.00 0.00 0.00 0.00 0.00 0.00 0.00 0.00 0.00 0.00 0.00 0.00 0.00 0.00 0.00 0.00 0.00 0.00 0.00 0.01 0.02 0.04 0.05 0.05 0.04 0.02 0.01 0.00
0.00 0.00 0.00 0.00 0.00 0.00 0.00 0.00 0.00 0.00 0.00 0.00 0.00 0.00 0.00 0.00 0.00 0.00 0.00 0.00 0.00 0.00 0.00 0.00 0.00 0.01 0.01 0.01 0.00 0.00 0.00 0.00 0.00 0.00 0.00 0.00 0.00 0.00 0.00 0.00 0.00 0.00 0.00 0.00
0.00 0.00 0.00 0.00 0.00 0.00 0.00 0.00 0.00 0.00 0.00 0.00 0.00 0.00 0.00 0.00 0.00 0.00 0.00 0.00 0.00 0.00 0.00 0.00 0.00 0.00 0.00 0.01 0.00 0.00 0.00 0.00 0.00 0.00 0.00 0.00 0.00 0.00 0.00 0.00 0.00 0.00 0.00 0.00
0.00 0.00 0.00 0.00 0.00 0.00 0.00 0.00 0.00 0.00 0.00 0.00 0.00 0.00 0.00 0.00 0.00 0.00 0.00 0.00 0.00 0.00 0.00 0.00 0.00 0.00 0.01 0.01 0.01 0.01 0.00 0.00 0.00 0.00 0.00 0.00 0.00 0.00 0.00 0.00 0.00 0.00 0.00 0.00
0.00 0.00 0.00 0.00 0.00 0.00 0.00 0.00 0.00 0.00 0.00 0.00 0.00 0.00 0.00 0.00 0.00 0.00 0.00 0.00 0.00 0.00 0.00 0.00 0.00 0.00 0.00 0.00 0.00 0.00 0.00 0.00 0.00 0.00 0.00 0.00 0.00 0.00 0.00 0.00 0.00 0.00 0.01 0.02
0.00 0.00 0.00 0.00 0.00 0.00 0.00 0.00 0.00 0.00 0.00 0.00 0.00 0.00 0.00 0.00 0.00 0.00 0.00 0.00 0.00 0.00 0.00 0.00 0.00 0.00 0.00 0.00 0.00 0.00 0.00 0.00 0.00 0.00 0.00 0.00 0.00 0.00 0.00 0.00 0.00 0.01 0.02 0.03
0.00 0.00 0.00 0.00 0.00 0.00 0.00 0.00 0.00 0.00 0.00 0.00 0.00 0.00 0.00 0.00 0.00 0.00 0.00 0.00 0.00 0.00 0.00 0.00 0.00 0.00 0.00 0.00 0.00 0.00 0.00 0.00 0.00 0.00 0.00 0.00 0.00 0.00 0.00 0.00 0.00 0.00 0.00 0.01
0.00 0.00 0.00 0.00 0.00 0.00 0.00 0.00 0.00 0.00 0.00 0.00 0.00 0.00 0.00 0.00 0.00 0.00 0.00 0.00 0.00 0.00 0.00 0.00 0.00 0.00 0.00 0.00 0.00 0.00 0.00 0.00 0.00 0.00 0.00 0.00 0.00 0.00 0.00 0.00 0.00 0.00 0.00 0.00
0.00 0.00 0.00 0.00 0.00 0.00 0.00 0.00 0.00 0.00 0.00 0.00 0.00 0.00 0.00 0.00 0.00 0.00 0.00 0.00 0.00 0.00 0.00 0.00 0.00 0.00 0.00 0.00 0.00 0.00 0.00 0.00 0.00 0.00 0.00 0.00 0.00 0.00 0.00 0.00 0.00 0.00 0.00 0.00
0.00 0.00 0.00 0.00 0.00 0.00 0.00 0.00 0.00 0.00 0.00 0.00 0.00 0.00 0.00 0.00 0.00 0.00 0.00 0.00 0.00 0.00 0.00 0.00 0.00 0.00 0.00 0.00 0.00 0.00 0.00 0.00 0.00 0.00 0.00 0.00 0.00 0.00 0.00 0.00 0.00 0.00 0.00 0.00
0.00 0.00 0.00 0.00 0.00 0.00 0.00 0.00 0.00 0.00 0.00 0.00 0.00 0.00 0.00 0.00 0.00 0.00 0.00 0.00 0.00 0.00 0.00 0.00 0.00 0.00 0.00 0.00 0.00 0.00 0.00 0.00 0.00 0.00 0.00 0.00 0.00 0.00 0.00 0.00 0.00 0.00 0.00 0.00
0.00 0.00 0.00 0.00 0.00 0.00 0.00 0.00 0.00 0.00 0.00 0.00 0.00 0.00 0.00 0.00 0.00 0.00 0.00 0.00 0.00 0.00 0.00 0.00 0.00 0.00 0.00 0.00 0.00 0.00 0.00 0.00 0.00 0.00 0.00 0.00 0.00 0.00 0.00 0.00 0.00 0.00 0.00 0.00
0.00 0.00 0.00 0.00 0.00 0.00 0.00 0.00 0.00 0.00 0.00 0.00 0.00 0.00 0.00 0.00 0.00 0.00 0.00 0.00 0.00 0.00 0.00 0.00 0.00 0.00 0.00 0.00 0.00 0.00 0.00 0.00 0.00 0.00 0.00 0.00 0.00 0.00 0.00 0.00 0.00 0.00 0.00 0.00
0.00 0.00 0.00 0.00 0.00 0.00 0.00 0.00 0.00 0.00 0.00 0.00 0.00 0.00 0.00 0.00 0.00 0.00 0.00 0.00 0.00 0.00 0.00 0.00 0.00 0.00 0.00 0.00 0.00 0.00 0.00 0.00 0.00 0.00 0.00 0.00 0.00 0.00 0.00 0.00 0.00 0.00 0.00 0.00
0.00 0.00 0.00 0.00 0.00 0.00 0.00 0.00 0.00 0.00 0.00 0.00 0.00 0.00 0.00 0.00 0.00 0.00 0.00 0.00 0.00 0.00 0.00 0.00 0.00 0.00 0.00 0.00 0.00 0.00 0.00 0.00 0.00 0.00 0.00 0.00 0.00 0.00 0.00 0.00 0.00 0.00 0.00 0.00
MSLP
1012.95 1012.62 1012.52 1012.08 1011.53 1010.85 1010.50 1010.44 1010.00 1010.73 1010.60 1010.93 1011.16 1011.36 1011.67 1011.61 1011.77 1011.49 1011.54 1011.42 1011.27 1011.18 1010.95 1011.41 1011.75 1011.91 1011.81 1012.19 1012.62 1012.79 1012.99 1013.31 1013.81 1014.36 1014.88 1015.64 1016.40 1016.89 1017.23 1017.77 1018.41 1018.93 1019.56 1020.08
1013.23 1013.00 1012.56 1012.33 1012.62 1011.93 1011.70 1011.43 1011.08 1011.06 1011.34 1011.85 1012.12 1012.25 1012.28 1012.55 1012.66 1012.90 1012.77 1012.75 1012.84 1012.40 1011.77 1011.98 1012.32 1012.17 1012.43 1012.83 1013.16 1013.26 1013.56 1013.97 1014.44 1015.00 1015.52 1016.33 1017.02 1017.36 1017.85 1018.33 1018.89 1019.50 1019.90 1020.14
1012.99 1012.88 1012.42 1012.33 1012.97 1012.71 1012.42 1012.13 1011.50 1011.39 1012.31 1012.39 1012.37 1012.65 1013.20 1013.39 1013.55 1013.66 1013.73 1013.52 1013.48 1013.10 1012.87 1012.69 1012.75 1012.45 1012.71 1013.27 1013.59 1013.60 1014.06 1014.79 1015.24 1015.66 1016.06 1016.58 1017.19 1017.79 1018.10 1018.68 1019.20 1019.55 1019.90 1020.24
1012.83 1012.68 1012.83 1013.79 1013.69 1013.26 1012.58 1012.75 1012.57 1012.55 1012.85 1013.12 1013.55 1014.00 1014.15 1014.25 1014.11 1014.34 1014.36 1014.37 1013.95 1013.46 1013.19 1012.94 1013.13 1013.30 1013.26 1013.63 1014.19 1014.66 1014.94 1014.98 1015.68 1016.08 1016.65 1017.14 1017.66 1018.33 1018.75 1019.18 1019.66 1020.00 1020.48 1020.75
1012.73 1012.76 1013.61 1013.65 1013.72 1013.73 1013.19 1013.55 1013.58 1013.59 1013.67 1013.65 1013.76 1013.87 1014.16 1014.51 1014.77 1014.93 1014.92 1014.90 1014.60 1014.38 1013.93 1013.31 1013.42 1013.89 1014.07 1014.15 1014.42 1014.54 1014.97 1015.69 1016.31 1016.49 1017.11 1017.72 1017.90 1018.34 1019.27 1019.82 1020.11 1020.27 1020.70 1020.75
1013.20 1013.06 1013.33 1013.64 1014.15 1014.27 1013.85 1013.90 1014.18 1013.97 1013.87 1013.73 1013.84 1013.70 1014.64 1015.36 1015.47 1015.41 1015.79 1015.91 1015.32 1014.73 1014.37 1014.10 1014.33 1014.29 1014.06 1014.37 1014.90 1015.46 1015.57 1015.87 1016.49 1016.93 1017.36 1017.99 1018.31 1018.83 1019.30 1019.78 1020.22 1020.29 1020.65 1020.94
1013.54 1013.70 1014.10 1014.12 1014.33 1014.34 1013.99 1014.79 1014.56 1014.58 1014.64 1014.63 1014.65 1015.51 1015.97 1016.15 1016.21 1016.52 1016.36 1016.07 1015.85 1015.48 1015.20 1015.14 1015.09 1014.97 1014.88 1015.19 1015.32 1015.63 1016.03 1016.50 1016.85 1017.04 1017.26 1017.85 1018.57 1019.03 1019.40 1019.83 1020.26 1020.73 1021.06 1021.17
1014.51 1014.42 1014.77 1014.97 1015.08 1014.92 1014.92 1015.00 1015.10 1015.27 1015.53 1015.78 1016.21 1016.61 1016.74 1017.00 1017.16 1017.17 1016.88 1016.71 1016.49 1016.12 1016.12 1015.97 1015.83 1015.73 1015.81 1016.00 1016.33 1016.15 1016.03 1016.03 1016.61 1016.82 1017.33 1018.04 1018.46 1019.08 1019.25 1019.64 1019.74 1019.74 1019.67 1020.26
1015.07 1015.06 1015.56 1015.66 1015.59 1015.77 1015.66 1015.46 1015.77 1015.86 1015.99 1015.99 1016.26 1016.61 1017.07 1017.47 1017.70 1017.80 1017.84 1017.46 1017.17 1016.79 1016.75 1017.02 1016.96 1016.77 1016.53 1016.92 1016.85 1016.96 1017.03 1017.15 1017.56 1017.70 1017.79 1018.06 1018.30 1018.41 1018.70 1019.23 1019.29 1019.59 1019.80 1019.88
1015.56 1015.70 1015.82 1015.96 1016.21 1016.32 1016.27 1016.27 1016.41 1016.42 1016.26 1016.23 1016.22 1016.47 1016.80 1017.02 1017.09 1017.21 1017.46 1017.71 1018.02 1017.82 1017.70 1017.70 1017.70 1017.62 1017.76 1017.85 1017.52 1017.27 1017.29 1017.39 1017.65 1017.95 1018.33 1018.58 1018.72 1018.88 1018.78 1019.14 1019.09 1019.39 1019.71 1019.98
1015.46 1015.89 1016.28 1016.41 1016.59 1016.68 1016.75 1016.86 1016.78 1016.67 1016.56 1016.52 1016.54 1016.73 1016.97 1017.40 1017.86 1018.18 1018.31 1018.35 1018.24 1018.05 1018.18 1018.54 1018.69 1018.78 1018.96 1018.97 1018.57 1017.98 1017.76 1017.62 1017.81 1017.83 1017.98 1018.37 1018.89 1018.82 1018.89 1018.77 1018.97 1019.05 1019.04 1019.20
1014.20 1014.50 1015.13 1015.52 1016.34 1016.86 1017.09 1017.38 1017.41 1017.28 1017.17 1016.97 1016.87 1016.87 1017.25 1017.65 1018.11 1018.41 1018.60 1018.65 1018.64 1018.74 1018.90 1019.11 1019.23 1019.41 1019.56 1019.67 1019.52 1019.10 1018.67 1018.58 1018.59 1018.57 1018.59 1018.45 1018.25 1018.41 1018.39 1018.50 1018.71 1019.00 1019.06 1019.06
1014.50 1015.09 1015.66 1016.03 1016.68 1017.17 1017.36 1017.54 1017.59 1017.60 1017.66 1017.45 1017.47 1017.39 1017.60 1017.91 1018.19 1018.36 1018.65 1018.79 1019.01 1019.17 1019.31 1019.48 1019.70 1019.83 1019.89 1019.77 1019.57 1019.34 1019.15 1019.05 1018.88 1018.80 1018.66 1018.54 1018.57 1018.51 1018.33 1018.37 1018.54 1018.46 1018.58 1018.75
1015.27 1015.59 1016.47 1016.78 1016.88 1017.43 1017.61 1017.73 1017.82 1017.86 1017.83 1017.91 1017.85 1017.94 1018.09 1018.29 1018.67 1018.95 1019.15 1019.36 1019.45 1019.50 1019.63 1019.79 1019.94 1020.17 1020.18 1019.88 1019.59 1019.64 1019.68 1019.63 1019.45 1019.38 1019.25 1018.97 1018.87 1018.69 1018.61 1018.47 1018.33 1018.25 1018.28 1018.41
1015.68 1015.92 1015.85 1016.58 1017.33 1017.64 1017.91 1017.99 1018.05 1018.04 1018.01 1018.20 1018.33 1018.38 1018.41 1018.50 1018.83 1019.21 1019.62 1019.92 1020.01 1019.99 1020.05 1020.12 1020.05 1020.25 1020.22 1020.09 1019.96 1019.83 1019.94 1019.99 1019.82 1019.73 1019.52 1019.30 1019.23 1019.15 1018.96 1018.79 1018.61 1018.34 1018.22 1018.33
1016.12 1016.40 1016.70 1016.96 1017.38 1017.65 1017.86 1018.04 1018.11 1018.19 1018.32 1018.46 1018.69 1018.96 1018.99 1018.98 1019.27 1019.63 1020.00 1020.10 1020.12 1020.16 1020.19 1020.31 1020.34 1020.45 1020.33 1020.25 1020.11 1019.96 1019.85 1020.01 1019.86 1019.89 1019.72 1019.50 1019.32 1019.18 1019.02 1018.83 1018.67 1018.48 1018.34 1018.24
1015.85 1016.58 1016.77 1017.10 1017.27 1017.48 1017.67 1017.85 1018.06 1018.36 1018.77 1019.08 1019.34 1019.45 1019.62 1019.82 1020.01 1020.26 1020.33 1020.41 1020.47 1020.32 1020.41 1020.48 1020.36 1020.54 1020.58 1020.53 1020.36 1020.16 1020.11 1019.94 1019.90 1019.97 1019.74 1019.61 1019.46 1019.25 1019.09 1018.89 1018.65 1018.45 1018.31 1018.21
1015.14 1015.45 1015.95 1016.25 1016.72 1017.19 1017.59 1017.93 1018.26 1018.62 1019.07 1019.40 1019.63 1019.89 1019.96 1020.02 1020.11 1020.09 1020.25 1020.53 1020.41 1020.32 1020.23 1020.25 1020.44 1020.44 1020.42 1020.52 1020.55 1020.45 1020.35 1020.26 1020.15 1020.06 1019.93 1019.82 1019.63 1019.51 1019.31 1019.04 1018.77 1018.61 1018.54 1018.36
1015.52 1015.74 1016.18 1016.50 1016.84 1017.21 1017.57 1017.93 1018.28 1018.72 1019.13 1019.53 1019.75 1019.84 1019.93 1019.89 1019.92 1020.20 1020.47 1020.38 1020.33 1020.13 1019.81 1020.10 1020.40 1020.49 1020.45 1020.40 1020.45 1020.41 1020.30 1020.24 1020.20 1020.13 1020.04 1019.86 1019.73 1019.63 1019.50 1019.30 1019.05 1018.87 1018.81 1018.69
1016.02 1016.29 1016.62 1016.92 1017.24 1017.47 1017.79 1018.08 1018.44 1018.77 1019.05 1019.41 1019.62 1019.62 1019.63 1019.76 1020.04 1020.17 1020.19 1020.25 1019.96 1019.80 1020.04 1020.10 1020.16 1020.24 1020.31 1020.31 1020.30 1020.16 1020.16 1020.01 1019.96 1020.01 1019.91 1019.80 1019.70 1019.61 1019.52 1019.46 1019.29 1019.10 1018.92 1018.84
1016.07 1016.50 1016.86 1017.12 1017.43 1017.68 1017.88 1018.09 1018.46 1018.78 1019.07 1019.30 1019.32 1019.39 1019.55 1019.70 1019.93 1019.93 1020.05 1019.84 1019.49 1019.70 1019.81 1019.89 1019.96 1019.92 1019.93 1019.93 1019.92 1019.80 1019.79 1019.79 1019.75 1019.69 1019.82 1019.72 1019.68 1019.57 1019.51 1019.44 1019.35 1019.20 1019.02 1018.93
1016.23 1016.69 1017.07 1017.32 1017.49 1017.72 1017.89 1018.11 1018.49 1018.85 1018.97 1019.14 1019.31 1019.39 1019.48 1019.49 1019.46 1019.55 1019.47 1019.47 1019.19 1019.40 1019.33 1019.41 1019.51 1019.53 1019.54 1019.61 1019.52 1019.51 1019.52 1019.56 1019.53 1019.52 1019.50 1019.48 1019.60 1019.59 1019.48 1019.38 1019.31 1019.22 1019.09 1018.98
1016.40 1016.82 1017.06 1017.23 1017.44 1017.68 1017.84 1018.12 1018.37 1018.48 1018.62 1018.78 1018.91 1019.02 1018.99 1018.81 1018.93 1019.10 1018.88 1018.70 1018.78 1018.80 1018.87 1018.80 1018.85 1019.09 1019.16 1019.13 1019.23 1019.34 1019.35 1019.45 1019.46 1019.43 1019.46 1019.50 1019.61 1019.63 1019.47 1019.32 1019.29 1019.21 1019.20 1019.09
1016.47 1016.72 1016.92 1017.18 1017.56 1017.77 1017.86 1017.99 1018.15 1018.20 1018.28 1018.37 1018.42 1018.43 1018.46 1018.47 1018.44 1018.42 1018.40 1018.31 1018.32 1018.34 1018.32 1018.33 1018.39 1018.50 1018.59 1018.62 1018.74 1018.83 1018.93 1019.13 1019.33 1019.40 1019.40 1019.44 1019.41 1019.44 1019.45 1019.32 1019.17 1019.15 1019.08 1018.92
1016.26 1016.59 1016.94 1017.23 1017.49 1017.51 1017.69 1017.81 1017.90 1017.91 1017.97 1017.93 1017.88 1017.85 1017.89 1018.04 1018.07 1017.61 1017.75 1017.79 1017.84 1017.99 1018.00 1017.96 1017.98 1018.05 1018.13 1018.13 1018.28 1018.46 1018.61 1018.78 1018.95 1019.13 1019.14 1019.17 1019.22 1019.20 1019.15 1019.07 1019.01 1018.92 1018.79 1018.67
1016.29 1016.45 1016.59 1016.85 1017.02 1017.18 1017.30 1017.58 1017.58 1017.40 1017.42 1017.33 1017.24 1017.27 1017.33 1017.33 1017.31 1017.34 1017.43 1017.58 1017.67 1017.58 1017.46 1017.53 1017.58 1017.65 1017.76 1017.86 1017.92 1018.08 1018.20 1018.34 1018.44 1018.55 1018.70 1018.85 1018.96 1018.92 1018.81 1018.77 1018.79 1018.64 1018.53 1018.43
1016.29 1016.44 1016.61 1016.82 1016.79 1016.89 1017.05 1017.16 1017.17 1016.95 1016.96 1016.93 1016.79 1016.81 1016.83 1016.84 1017.02 1017.07 1017.06 1017.11 1017.07 1017.09 1017.10 1017.14 1017.26 1017.33 1017.43 1017.59 1017.67 1017.77 1017.91 1017.97 1018.10 1018.25 1018.39 1018.45 1018.54 1018.55 1018.52 1018.42 1018.37 1018.32 1018.31 1018.18
Thickness
5501 5503 5503 5508 5515 5523 5513 5523 5530 5524 5526 5525 5526 5529 5528 5534 5537 5543 5544 5551 5560 5566 5574 5575 5577 5580 5587 5587 5588 5591 5592 5593 5591 5588 5588 5585 5581 5580 5580 5579 5576 5574 5571 5569
5496 5503 5513 5514 5511 5521 5521 5525 5528 5530 5525 5526 5527 5532 5532 5531 5534 5535 5539 5545 5546 5554 5564 5566 5567 5573 5575 5577 5578 5579 5580 5579 5578 5578 5576 5572 5569 5569 5568 5566 5564 5561 5560 5561
5505 5504 5511 5516 5503 5510 5514 5516 5528 5531 5522 5526 5530 5529 5526 5529 5530 5530 5533 5538 5539 5548 5554 5559 5561 5567 5568 5565 5566 5570 5569 5565 5565 5564 5565 5564 5559 5555 5555 5554 5552 5552 5551 5549
5515 5514 5513 5501 5502 5505 5514 5511 5516 5521 5521 5521 5520 5518 5521 5523 5527 5527 5528 5531 5538 5543 5550 5555 5555 5557 5560 5559 5558 5556 5555 5558 5553 5552 5551 5550 5547 5542 5540 5538 5536 5536 5534 5534
5518 5515 5506 5504 5504 5503 5511 5509 5512 5515 5516 5518 5519 5521 5522 5517 5517 5518 5521 5523 5529 5533 5539 5547 5549 5545 5547 5550 5549 5549 5549 5544 5538 5539 5537 5535 5536 5533 5526 5523 5523 5523 5522 5523
5509 5510 5513 5510 5503 5501 5508 5509 5508 5512 5515 5517 5520 5529 5522 5509 5508 5512 5510 5510 5517 5525 5531 5535 5533 5534 5539 5539 5536 5534 5534 5532 5527 5525 5523 5520 5519 5517 5514 5512 5509 5511 5510 5509
5512 5509 5507 5503 5501 5503 5516 5512 5507 5508 5508 5511 5515 5508 5500 5500 5503 5501 5501 5504 5508 5513 5515 5517 5519 5522 5524 5523 5522 5520 5516 5513 5512 5512 5512 5509 5504 5501 5501 5499 5495 5491 5490 5491
5506 5510 5504 5492 5495 5506 5504 5499 5501 5500 5498 5496 5493 5488 5489 5489 5490 5490 5492 5494 5497 5499 5498 5500 5504 5508 5507 5504 5501 5504 5507 5508 5505 5503 5500 5496 5493 5488 5489 5487 5489 5490 5492 5488
5514 5514 5491 5490 5494 5489 5491 5497 5492 5494 5492 5494 5490 5487 5484 5482 5479 5478 5479 5483 5484 5488 5488 5483 5482 5486 5490 5487 5489 5489 5488 5487 5483 5483 5485 5484 5484 5482 5482 5479 5480 5478 5476 5479
5507 5497 5496 5494 5491 5489 5489 5490 5486 5485 5488 5488 5490 5487 5482 5479 5480 5479 5476 5472 5469 5471 5472 5471 5470 5471 5470 5470 5474 5477 5477 5477 5474 5472 5469 5468 5467 5466 5470 5468 5469 5467 5464 5463
5505 5495 5492 5492 5491 5490 5488 5485 5485 5485 5485 5484 5483 5479 5476 5469 5463 5459 5458 5457 5458 5460 5459 5454 5453 5452 5451 5451 5455 5459 5461 5462 5460 5461 5462 5459 5455 5457 5457 5458 5458 5458 5458 5459
5531 5523 5517 5512 5497 5489 5488 5482 5478 5480 5480 5479 5479 5478 5471 5462 5455 5452 5450 5447 5446 5444 5442 5439 5438 5436 5434 5433 5434 5438 5443 5443 5443 5444 5444 5446 5447 5447 5449 5448 5447 5446 5444 5445
5528 5513 5505 5501 5492 5484 5484 5480 5477 5476 5472 5473 5471 5470 5465 5457 5451 5448 5443 5438 5434 5430 5428 5426 5423 5421 5419 5420 5421 5423 5425 5427 5430 5431 5433 5435 5434 5433 5435 5436 5436 5437 5436 5435
5509 5505 5494 5490 5492 5480 5478 5475 5473 5471 5469 5466 5464 5461 5457 5452 5444 5438 5433 5426 5422 5419 5415 5412 5409 5405 5404 5406 5408 5407 5406 5407 5409 5410 5412 5416 5418 5420 5421 5422 5425 5426 5425 5425
5504 5498 5503 5491 5480 5475 5471 5469 5467 5467 5464 5459 5455 5452 5449 5445 5438 5430 5421 5414 5410 5407 5403 5400 5397 5394 5392 5392 5392 5392 5390 5389 5391 5391 5393 5396 5398 5400 5403 5405 5407 5411 5412 5411
5495 5491 5486 5484 5477 5472 5468 5464 5463 5460 5456 5453 5446 5439 5436 5432 5426 5418 5411 5406 5402 5397 5393 5388 5384 5381 5380 5379 5379 5379 5378 5377 5378 5377 5378 5380 5382 5383 5386 5388 5391 5393 5395 5397
5496 5485 5482 5478 5475 5472 5468 5464 5459 5453 5445 5439 5433 5428 5421 5416 5410 5403 5399 5393 5388 5386 5381 5375 5373 5368 5366 5364 5364 5364 5363 5363 5363 5362 5364 5366 5367 5369 5370 5373 5375 5378 5380 5382
5504 5501 5492 5488 5479 5471 5463 5458 5451 5444 5436 5428 5422 5416 5411 5407 5403 5399 5391 5383 5379 5376 5372 5368 5361 5358 5355 5352 5350 5349 5347 5346 5346 5346 5347 5348 5351 5353 5355 5357 5360 5363 5364 5366
5497 5491 5484 5478 5473 5467 5459 5452 5444 5435 5427 5419 5413 5409 5404 5401 5396 5387 5379 5375 5370 5367 5366 5358 5350 5346 5343 5341 5338 5336 5334 5332 5331 5331 5331 5332 5334 5336 5337 5340 5344 5346 5347 5349
5486 5481 5476 5469 5463 5457 5449 5443 5435 5428 5421 5413 5406 5403 5399 5393 5385 5378 5373 5366 5364 5360 5351 5346 5341 5337 5332 5329 5326 5325 5321 5319 5318 5316 5316 5318 5319 5320 5322 5323 5326 5329 5332 5334
5481 5474 5468 5462 5455 5449 5442 5436 5427 5420 5413 5405 5401 5397 5390 5384 5376 5371 5363 5360 5357 5349 5342 5336 5331 5327 5322 5319 5316 5314 5310 5306 5304 5302 5301 5302 5303 5305 5308 5310 5311 5314 5316 5318
5474 5466 5459 5453 5447 5441 5435 5428 5419 5410 5404 5397 5390 5385 5378 5373 5369 5362 5357 5352 5348 5339 5335 5329 5323 5318 5313 5309 5306 5303 5299 5294 5292 5291 5290 5290 5289 5290 5292 5295 5297 5299 5302 5304
5465 5458 5453 5446 5439 5433 5426 5419 5411 5404 5397 5390 5383 5376 5371 5370 5363 5355 5352 5346 5338 5332 5326 5323 5318 5310 5305 5302 5297 5292 5288 5284 5280 5279 5278 5277 5275 5275 5278 5281 5283 5286 5288 5290
5459 5453 5447 5440 5431 5423 5417 5410 5402 5397 5391 5383 5376 5370 5365 5359 5354 5347 5341 5336 5330 5324 5319 5315 5309 5303 5299 5295 5290 5286 5281 5275 5269 5266 5267 5266 5266 5265 5267 5269 5272 5274 5276 5280
5452 5445 5435 5427 5421 5417 5407 5401 5393 5388 5381 5375 5369 5364 5357 5350 5343 5341 5334 5327 5320 5313 5309 5305 5299 5295 5291 5288 5284 5279 5275 5270 5265 5261 5261 5260 5259 5260 5261 5262 5263 5265 5268 5270
5444 5438 5432 5423 5417 5409 5401 5393 5385 5382 5375 5369 5364 5358 5350 5343 5336 5329 5321 5313 5307 5303 5299 5293 5289 5285 5281 5278 5276 5272 5270 5267 5264 5261 5258 5255 5254 5254 5256 5257 5258 5260 5262 5264
5430 5426 5417 5410 5406 5399 5392 5385 5379 5374 5367 5361 5355 5349 5342 5334 5325 5317 5311 5303 5298 5292 5287 5282 5277 5274 5271 5268 5266 5265 5263 5262 5260 5257 5255 5253 5252 5252 5253 5254 5256 5257 5257 5259